SM4TUV Weather Reports


Display with metric or nautical units.
time (UTC)temp
F
wind
direction
speed
MPH
gust
MPH
rain 1hr
in
rain 24hr
in
rain mn
in
humidity
%
barometer
mb
20260506160530 51 197 7.0 10.0 0.00 0.00 0.00 32 977.2
20260506155630 51 242 5.0 8.0 0.00 0.00 0.00 28 977.0
20260506154730 51 260 3.0 5.0 0.00 0.00 0.00 27 977.1
20260506153830 51 198 5.0 8.0 0.00 0.00 0.00 30 977.3
20260506152930 52 191 6.0 8.0 0.00 0.00 0.00 31 977.2
20260506152030 51 190 8.0 10.0 0.00 0.00 0.00 31 977.3
20260506151130 51 206 10.0 14.0 0.00 0.00 0.00 33 977.1
20260506150230 51 212 10.0 14.0 0.00 0.00 0.00 31 977.2
20260506145330 52 195 6.0 7.0 0.00 0.00 0.00 27 977.3
20260506144430 53 225 7.0 10.0 0.00 0.00 0.00 26 977.4
20260506143530 54 209 7.0 8.0 0.00 0.00 0.00 25 977.4
20260506142630 53 213 6.0 9.0 0.00 0.00 0.00 27 977.4
20260506141730 53 215 7.0 9.0 0.00 0.00 0.00 25 977.4
20260506140831 53 273 4.0 10.0 0.00 0.00 0.00 26 977.5
20260506135930 55 261 4.0 6.0 0.00 0.00 0.00 26 977.6
20260506135030 54 304 5.0 8.0 0.00 0.00 0.00 27 977.7
20260506134130 53 328 4.0 7.0 0.00 0.00 0.00 29 977.6
20260506133230 51 291 6.0 8.0 0.00 0.00 0.00 28 977.7
20260506132330 52 271 6.0 9.0 0.00 0.00 0.00 28 977.9
20260506131431 53 295 6.0 8.0 0.00 0.00 0.00 28 978.0
20260506130530 54 286 8.0 9.0 0.00 0.00 0.00 26 978.0
20260506125630 52 223 10.0 14.0 0.00 0.00 0.00 26 978.0
20260506124730 54 192 9.0 11.0 0.00 0.00 0.00 25 978.0
20260506123830 54 175 8.0 14.0 0.00 0.00 0.00 26 977.9
20260506122030 51 244 7.0 9.0 0.00 0.00 0.00 29 978.4
20260506121131 53 188 8.0 9.0 0.00 0.00 0.00 28 978.2
20260506120230 53 219 9.0 11.0 0.00 0.00 0.00 29 978.4
20260506115330 53 237 9.0 15.0 0.00 0.00 0.00 27 978.4
20260506114430 53 231 6.0 11.0 0.00 0.00 0.00 29 978.3
20260506113530 51 205 9.0 11.0 0.00 0.00 0.00 28 978.3
20260506112630 52 185 7.0 12.0 0.00 0.00 0.00 30 978.5
20260506111730 51 209 7.0 12.0 0.00 0.00 0.00 27 978.5
20260506110831 51 203 7.0 11.0 0.00 0.00 0.00 30 978.6
20260506105930 52 200 8.0 15.0 0.00 0.00 0.00 29 978.6
20260506104131 50 297 6.0 8.0 0.00 0.00 0.00 32 978.8
20260506103230 48 268 7.0 9.0 0.00 0.00 0.00 32 978.9
20260506102330 48 272 5.0 8.0 0.00 0.00 0.00 34 978.9
20260506101430 48 285 5.0 7.0 0.00 0.00 0.00 33 979.0
20260506100530 49 256 7.0 11.0 0.00 0.00 0.00 31 979.0
20260506095630 50 271 6.0 11.0 0.00 0.00 0.00 31 979.1
20260506094730 50 246 6.0 9.0 0.00 0.00 0.00 32 979.1
20260506093831 49 224 7.0 11.0 0.00 0.00 0.00 31 979.4
20260506092930 50 234 5.0 8.0 0.00 0.00 0.00 33 979.1
20260506091130 49 276 5.0 8.0 0.00 0.00 0.00 33 979.4
20260506090230 48 291 5.0 8.0 0.00 0.00 0.00 35 979.3
20260506085330 48 195 6.0 13.0 0.00 0.00 0.00 33 979.6
20260506084430 48 195 6.0 13.0 0.00 0.00 0.00 30 979.5
20260506083530 48 209 5.0 8.0 0.00 0.00 0.00 32 979.6
20260506082630 46 223 6.0 9.0 0.00 0.00 0.00 36 979.7
20260506081730 46 247 6.0 8.0 0.00 0.00 0.00 39 979.6
20260506080831 44 284 6.0 7.0 0.00 0.00 0.00 42 979.7
20260506002930 29 121 3.0 3.0 0.00 0.00 0.00 82 978.2
20260506002030 29 135 2.0 3.0 0.00 0.00 0.00 81 978.2
20260506001130 29 181 2.0 2.0 0.00 0.00 0.00 79 978.3
20260506000230 29 181 2.0 3.0 0.00 0.00 0.00 78 978.3
20260505235330 30 175 2.0 3.0 0.00 0.00 0.00 77 978.1
20260505234430 29 187 3.0 3.0 0.00 0.00 0.00 76 978.0
20260505233530 29 181 3.0 3.0 0.00 0.00 0.00 71 978.0
20260505232631 30 160 3.0 3.0 0.00 0.00 0.00 70 977.9
20260505231730 30 111 2.0 3.0 0.00 0.00 0.00 70 977.9
20260505225930 31 55 2.0 2.0 0.00 0.00 0.00 69 977.8
20260505225030 31 142 1.0 2.0 0.00 0.00 0.00 67 977.7
20260505224130 32 35 1.0 2.0 0.00 0.00 0.00 65 977.7
20260505221430 33 216 2.0 2.0 0.00 0.00 0.00 65 977.5
20260505220530 33 181 2.0 2.0 0.00 0.00 0.00 66 977.7
20260505215631 33 193 2.0 3.0 0.00 0.00 0.00 65 977.7
20260505214730 33 183 2.0 2.0 0.00 0.00 0.00 65 977.6
20260505213830 33 207 1.0 2.0 0.00 0.00 0.00 65 977.6
20260505212930 34 163 2.0 2.0 0.00 0.00 0.00 64 977.6
20260505212030 33 167 2.0 2.0 0.00 0.00 0.00 66 977.6
20260505211130 33 181 2.0 3.0 0.00 0.00 0.00 66 977.4
20260505210230 33 171 2.0 2.0 0.00 0.00 0.00 66 977.2
20260505205330 34 58 2.0 4.0 0.00 0.00 0.00 64 977.2
20260505204430 35 287 4.0 5.0 0.00 0.00 0.00 63 977.1
20260505203530 35 255 3.0 5.0 0.00 0.00 0.00 65 976.9
20260505201730 35 215 3.0 4.0 0.00 0.00 0.00 67 976.9
20260505200830 35 247 4.0 4.0 0.00 0.00 0.00 67 976.9
20260505195030 35 218 4.0 4.0 0.00 0.00 0.00 67 976.4
20260505194130 35 223 3.0 4.0 0.00 0.00 0.00 66 976.4
20260505192330 36 237 3.0 4.0 0.00 0.00 0.00 64 976.4
20260505190530 38 287 3.0 7.0 0.00 0.00 0.00 58 976.1
20260505185631 38 265 3.0 7.0 0.00 0.00 0.00 58 976.2
20260505184730 39 270 3.0 4.0 0.00 0.00 0.00 56 976.4
20260505183830 40 272 5.0 8.0 0.00 0.00 0.00 55 976.1
20260505182930 41 284 5.0 8.0 0.00 0.00 0.00 53 976.0
20260505175330 41 287 2.0 4.0 0.00 0.00 0.00 48 975.5
20260505174430 40 56 3.0 6.0 0.00 0.00 0.00 48 975.4
20260505173530 39 16 6.0 10.0 0.00 0.00 0.00 48 975.4
20260505172630 39 349 12.0 17.0 0.00 0.00 0.00 51 975.7
20260505171730 40 312 11.0 20.0 0.00 0.00 0.00 50 975.7
20260505170830 41 327 17.0 21.0 0.00 0.00 0.00 49 975.7
20260505165930 41 330 15.0 21.0 0.00 0.00 0.00 51 975.6
20260505164130 42 341 14.0 23.0 0.00 0.00 0.00 49 975.5
20260505163230 43 312 11.0 17.0 0.00 0.00 0.00 43 975.4
20260505162330 44 305 12.0 17.0 0.00 0.00 0.00 40 975.3
20260505161430 45 295 8.0 13.0 0.00 0.00 0.00 38 975.2